Location: Beuvrequen
(50.8014°N, 1.6652°E)
Time: 03:57:33
(UTC+00:00)

Cosmos 1892 - Pass Details

Date: 16 October 2021
Orbit: 501 x 522 km, 82.5° (Epoch: 05 December)

Event Time Altitude Azimuth Distance (km) Brightness Sun altitude
Rises 19:17:28 0° 353° (N) 2,634 6.6 -22.6°
Reaches altitude 10° 19:19:39 10° 357° (N) 1,739 5.5 -22.9°
Enters shadow 19:21:24 25° 7° (N) 1,061 4.3 -23.2°
